Wind_Speed
98 98 99 99 100 102 104 104 107 108 112 109 109 107 106 101 95 94 89 86 85 83 79 73 71 57 59 52 67 73 83 97 98 90 88 89 88 82 78 73 59 53 51 52
107 109 109 110 109 111 112 114 115 116 120 121 117 114 109 106 104 102 95 90 89 87 84 80 73 67 64 57 60 76 78 87 99 98 97 97 92 85 80 74 68 61 58 57
115 119 120 122 121 123 125 129 131 131 131 130 126 123 117 114 109 107 102 96 91 88 88 81 73 71 71 67 60 66 77 80 93 98 96 94 93 90 87 83 77 67 58 62
126 131 137 140 139 134 127 127 134 135 130 130 130 126 119 114 114 110 107 100 94 89 88 89 77 75 75 72 70 65 71 75 83 93 100 102 98 97 93 91 81 78 68 64
137 141 142 141 141 140 140 143 144 137 136 133 131 129 123 121 120 117 107 102 103 97 91 85 85 80 78 76 72 64 66 72 76 85 95 104 103 99 97 94 90 85 77 70
142 140 135 132 131 129 130 123 117 120 124 128 126 124 126 129 123 117 115 108 99 95 95 89 85 80 76 80 77 69 61 68 71 74 85 99 107 103 98 95 93 89 80 71
125 114 99 93 89 85 84 84 81 81 84 90 99 108 120 125 123 122 116 112 103 99 98 90 89 88 82 82 77 73 63 68 66 67 80 92 91 99 101 99 96 93 86 84
90 82 78 73 67 63 62 64 64 62 66 74 77 76 88 110 119 116 121 113 110 101 98 92 91 89 85 79 76 74 64 65 67 67 71 78 85 96 103 103 98 94 89 85
72 68 62 57 55 53 52 52 52 52 57 63 65 69 74 83 87 97 110 120 114 107 104 98 93 90 81 81 77 75 69 65 65 63 65 68 80 85 95 103 100 94 92 89
60 55 50 47 44 43 43 42 42 44 51 55 55 57 58 64 70 78 84 98 104 109 104 100 92 89 85 82 78 74 72 69 66 66 63 68 68 80 88 99 97 96 94 92
51 48 45 41 39 36 36 34 34 38 45 43 46 48 51 56 60 67 72 84 99 103 101 97 94 90 87 81 75 75 73 70 68 68 64 64 65 70 81 88 93 96 95 93
46 43 39 36 34 31 30 28 29 32 36 31 38 43 46 49 52 56 61 68 84 96 97 92 89 86 79 76 74 74 75 70 70 66 62 57 61 69 72 80 81 90 96 94
41 36 33 30 28 26 24 23 24 27 25 30 35 38 42 46 50 54 60 65 73 86 92 86 85 83 80 72 75 75 71 68 69 73 62 56 56 61 64 66 70 77 88 93
31 27 25 22 20 18 17 16 17 20 23 27 30 32 36 41 47 51 53 55 65 80 85 83 81 80 75 69 69 67 63 67 64 66 64 52 51 54 56 60 64 70 78 88
22 19 17 15 12 10 11 12 15 19 21 23 26 32 35 40 45 47 49 54 62 75 81 79 79 75 74 72 67 62 62 61 65 62 58 44 42 43 45 49 60 66 70 77
16 12 7 3 5 8 10 13 15 18 21 26 30 31 34 38 40 43 45 52 62 72 78 79 71 72 75 71 71 67 62 59 54 48 41 49 37 35 35 39 47 56 67 72
9 6 3 2 6 9 12 14 17 20 24 27 30 32 34 37 39 42 48 53 62 69 76 75 76 72 77 74 65 63 68 67 59 37 40 56 34 26 31 39 38 40 45 57
8 7 5 5 8 11 14 18 22 24 27 30 33 35 36 37 41 46 50 59 64 67 71 72 76 73 72 67 64 61 60 60 51 40 38 52 48 37 24 27 37 41 38 36
10 10 10 10 12 15 18 21 25 28 32 32 36 37 40 42 46 53 58 60 65 67 68 73 73 72 64 62 63 62 57 50 41 36 37 51 54 52 46 59 56 45 35 33
13 12 12 12 14 17 19 24 24 27 29 36 39 41 47 50 53 56 58 61 63 63 59 58 55 60 62 62 63 62 47 45 47 56 50 58 58 55 64 54 57 50 49 57
14 14 15 15 17 19 21 25 28 31 34 37 43 50 56 62 67 68 67 60 58 61 60 60 61 57 57 59 62 50 43 49 57 68 60 67 62 57 65 62 61 55 55 50
15 16 17 18 20 22 24 25 25 29 35 40 46 54 60 69 73 69 63 59 57 67 64 59 56 59 61 57 41 42 48 54 62 80 77 72 77 56 76 76 70 59 60 57
17 19 20 21 22 22 23 27 29 32 34 40 45 55 67 73 70 72 67 57 56 52 54 63 57 61 58 58 53 44 45 53 58 73 76 76 76 73 64 65 64 75 72 74
16 19 22 23 23 23 23 26 30 34 35 39 49 59 72 74 72 70 70 63 56 58 55 54 56 54 56 59 57 54 55 52 58 63 77 82 82 83 78 80 77 77 74 71
19 17 19 24 25 27 26 25 24 27 34 42 49 56 62 67 68 67 68 62 59 53 59 58 61 58 57 58 59 58 61 54 51 54 56 66 79 77 68 75 77 74 80 79
23 19 18 22 25 27 26 26 27 28 32 33 36 44 51 55 63 66 65 68 68 62 54 48 48 50 49 55 65 65 60 56 58 59 57 58 64 79 85 84 87 79 75 74
22 20 19 21 23 25 26 27 28 28 28 29 32 35 39 42 51 59 56 52 52 57 56 59 62 58 52 51 56 59 61 59 63 60 60 65 64 61 65 83 98 91 87 85
Wind_Direction
283 284 283 281 277 275 273 272 272 272 271 272 272 272 271 269 268 268 265 264 262 260 256 256 259 249 253 248 242 235 227 224 226 228 230 231 233 231 233 236 235 237 232 239
285 283 280 277 275 273 271 272 270 268 268 269 268 267 266 267 266 266 263 259 258 258 252 253 254 255 256 252 243 238 232 225 225 224 227 230 233 232 234 235 235 235 237 235
286 284 281 278 275 273 271 270 269 268 267 265 263 264 263 262 261 260 261 257 255 252 249 249 250 251 254 252 245 241 237 229 223 224 225 228 231 233 234 234 233 233 233 232
282 282 278 276 273 272 269 268 265 262 262 259 259 259 256 255 254 254 255 254 250 248 245 244 246 247 248 250 250 242 240 233 223 223 224 225 228 230 230 231 231 232 227 229
279 277 278 279 274 273 270 270 269 266 261 257 258 255 249 250 248 247 248 248 243 244 240 241 242 243 244 248 250 245 243 239 228 223 224 226 226 228 230 231 232 231 229 226
283 281 280 277 276 274 271 271 268 265 259 258 258 255 248 248 249 244 241 241 239 239 237 237 240 242 243 245 247 248 243 243 236 228 227 227 226 226 230 232 231 233 230 228
287 287 283 280 278 274 271 268 267 264 258 257 255 253 249 246 245 241 240 235 231 232 234 235 235 237 238 240 240 244 241 235 238 235 230 229 228 228 228 230 232 233 230 229
291 288 285 282 281 277 272 267 262 260 256 252 254 251 245 243 242 239 236 237 232 229 227 230 231 235 236 237 237 240 239 235 234 238 237 230 227 228 229 229 229 231 232 233
293 291 290 284 281 277 270 265 260 253 251 248 247 243 238 238 237 236 236 233 232 225 225 226 229 234 233 234 232 237 238 236 235 232 241 240 230 229 231 230 227 230 231 232
296 295 292 288 285 280 273 267 259 252 247 244 242 239 236 235 233 232 231 226 222 224 224 224 228 229 231 232 231 231 235 233 234 234 239 242 238 234 231 231 228 228 229 231
298 296 293 290 285 278 272 265 255 248 245 241 237 233 230 227 225 225 224 223 221 219 219 220 223 226 229 230 228 228 233 233 235 234 235 240 244 242 234 234 231 228 229 230
297 295 293 288 283 276 270 263 254 246 243 234 230 225 223 222 222 222 220 219 217 217 216 217 220 222 225 226 226 225 229 233 234 237 240 238 242 242 240 233 234 229 229 230
299 297 293 286 281 276 269 260 246 240 233 221 219 216 214 211 211 213 213 213 213 213 211 210 213 215 218 219 221 221 226 229 232 236 240 240 242 245 244 240 236 234 230 231
303 300 292 286 278 271 260 246 231 222 214 211 208 206 202 200 203 205 208 207 204 203 204 203 209 210 213 215 217 219 225 230 232 236 240 244 245 241 239 239 236 232 231 231
311 307 300 287 269 247 231 211 203 200 197 195 194 194 192 192 197 198 196 197 197 199 199 200 205 207 209 214 212 213 219 227 232 236 239 233 227 229 234 238 239 237 233 231
324 320 314 262 204 191 182 178 181 183 182 181 184 184 181 183 188 190 188 189 192 194 196 196 200 206 209 213 215 215 218 222 229 233 226 210 213 222 230 241 248 245 238 231
336 346 23 120 151 163 163 166 165 166 167 170 171 171 172 173 178 179 182 185 188 193 195 195 197 205 208 210 211 218 221 226 229 229 213 200 198 222 235 236 230 237 244 244
9 27 59 108 138 148 156 156 157 160 164 163 161 160 164 168 166 167 173 177 183 189 193 194 202 205 207 208 211 217 222 226 226 229 216 203 195 192 189 222 229 219 221 228
46 62 76 101 121 132 141 149 154 161 162 157 154 156 155 154 158 162 167 173 181 185 188 194 201 207 205 208 213 218 220 220 216 189 212 203 203 209 210 223 227 224 209 238
62 73 84 97 115 125 137 144 150 152 153 152 151 153 153 155 153 158 164 174 182 182 186 193 194 205 204 208 214 220 216 210 201 189 196 212 204 209 208 222 226 223 230 218
73 85 95 102 114 125 137 145 152 153 150 152 154 154 152 152 153 156 166 170 178 181 181 188 197 200 200 205 215 212 209 205 200 197 201 211 206 223 213 218 221 223 239 234
79 86 91 99 110 121 129 128 140 149 148 152 155 157 157 154 158 157 160 169 178 182 184 189 188 191 196 202 205 208 213 204 205 200 207 213 212 226 227 231 230 229 229 234
81 88 96 105 113 121 128 135 141 143 150 152 155 157 155 157 161 163 166 171 182 186 187 196 189 199 200 193 190 203 216 209 207 210 212 215 216 222 226 231 238 236 240 243
77 96 105 107 111 117 126 135 142 144 148 157 159 161 163 167 167 169 172 171 174 173 177 179 182 195 196 194 194 208 209 210 212 212 215 222 222 226 232 234 239 242 245 250
81 89 103 106 109 114 121 128 138 147 154 160 164 169 171 175 177 182 180 179 181 175 185 192 191 193 200 193 196 206 206 215 222 224 221 221 225 232 232 232 238 245 243 243
93 92 101 107 113 115 121 125 128 137 149 161 168 173 178 181 184 189 193 191 187 187 187 190 201 207 210 207 205 211 216 218 222 227 232 233 232 231 233 235 239 246 250 248
90 100 105 111 114 121 123 128 129 134 142 151 162 172 182 181 186 190 195 200 197 200 206 210 213 219 217 212 217 219 217 219 225 229 237 239 242 241 242 242 237 241 247 250
Height
10716 10712 10708 10703 10700 10695 10690 10690 10688 10689 10681 10681 10685 10692 10694 10704 10710 10711 10717 10719 10723 10729 10729 10736 10742 10747 10749 10761 10762 10768 10774 10787 10797 10823 10833 10835 10842 10857 10863 10870 10893 10902 10907 10909
10680 10672 10666 10659 10656 10653 10648 10647 10647 10645 10641 10643 10643 10653 10660 10669 10676 10680 10685 10695 10700 10700 10709 10714 10722 10728 10730 10738 10740 10745 10750 10771 10779 10794 10803 10813 10828 10847 10857 10866 10873 10885 10892 10898
10637 10625 10616 10610 10606 10600 10597 10594 10593 10595 10596 10597 10601 10610 10624 10629 10639 10647 10654 10665 10671 10677 10687 10692 10701 10708 10707 10714 10720 10725 10732 10744 10762 10777 10793 10803 10809 10826 10837 10846 10856 10872 10885 10886
10587 10571 10554 10552 10546 10541 10539 10537 10533 10535 10540 10542 10554 10563 10581 10590 10599 10611 10617 10632 10644 10651 10660 10669 10678 10683 10684 10693 10700 10708 10716 10727 10740 10752 10765 10771 10788 10799 10812 10822 10843 10847 10866 10872
10524 10513 10492 10486 10491 10484 10479 10476 10470 10476 10482 10487 10500 10510 10530 10541 10553 10570 10591 10596 10605 10621 10636 10646 10650 10657 10665 10671 10680 10692 10702 10712 10719 10732 10742 10750 10762 10780 10792 10808 10820 10832 10843 10858
10471 10456 10445 10438 10430 10425 10421 10411 10417 10421 10430 10435 10448 10460 10481 10495 10512 10535 10548 10559 10582 10596 10605 10618 10630 10640 10648 10652 10662 10678 10689 10695 10704 10718 10722 10729 10736 10760 10776 10794 10804 10815 10834 10849
10416 10407 10395 10388 10384 10379 10378 10375 10376 10381 10384 10391 10400 10413 10434 10449 10471 10493 10511 10533 10545 10561 10582 10599 10605 10612 10623 10631 10647 10658 10672 10678 10686 10696 10698 10708 10743 10746 10755 10768 10785 10799 10812 10817
10372 10364 10357 10351 10349 10348 10345 10343 10346 10351 10352 10359 10366 10378 10394 10412 10433 10447 10471 10498 10516 10535 10554 10570 10581 10589 10600 10620 10629 10643 10656 10665 10672 10678 10684 10697 10713 10719 10728 10742 10762 10779 10796 10807
10339 10333 10328 10323 10322 10321 10319 10319 10322 10327 10328 10332 10342 10354 10368 10377 10396 10414 10429 10459 10487 10508 10526 10541 10560 10570 10590 10595 10611 10626 10639 10649 10657 10668 10673 10683 10688 10705 10708 10719 10743 10762 10775 10785
10314 10308 10305 10301 10300 10299 10296 10297 10301 10304 10305 10310 10323 10335 10349 10361 10375 10389 10406 10429 10453 10479 10503 10526 10542 10553 10567 10578 10597 10615 10623 10634 10644 10651 10658 10662 10678 10681 10689 10697 10724 10739 10751 10764
10293 10290 10286 10283 10281 10281 10280 10282 10284 10286 10287 10300 10308 10320 10329 10340 10354 10367 10387 10405 10427 10454 10481 10505 10519 10536 10548 10565 10585 10597 10609 10618 10628 10636 10645 10652 10661 10663 10671 10685 10701 10720 10730 10742
10277 10274 10270 10268 10267 10266 10267 10268 10271 10272 10276 10291 10294 10304 10314 10326 10340 10356 10371 10389 10407 10434 10460 10485 10502 10522 10543 10555 10569 10583 10593 10605 10614 10625 10630 10642 10643 10648 10652 10662 10682 10699 10709 10721
10263 10259 10257 10255 10254 10253 10254 10256 10258 10261 10270 10275 10281 10292 10302 10313 10326 10341 10357 10372 10396 10418 10446 10468 10485 10505 10524 10541 10556 10570 10583 10593 10601 10607 10620 10627 10633 10637 10644 10652 10665 10677 10691 10701
10251 10247 10246 10244 10243 10244 10245 10246 10249 10255 10261 10266 10275 10284 10295 10308 10318 10331 10347 10369 10388 10410 10435 10457 10475 10495 10512 10527 10544 10561 10576 10579 10590 10600 10607 10618 10620 10623 10630 10636 10645 10655 10668 10682
10242 10240 10238 10236 10236 10237 10239 10241 10245 10250 10256 10263 10272 10280 10290 10302 10314 10329 10346 10363 10384 10406 10429 10451 10469 10489 10504 10518 10533 10545 10557 10571 10576 10588 10598 10611 10612 10617 10623 10627 10633 10641 10651 10664
10238 10235 10232 10231 10232 10234 10236 10240 10245 10250 10255 10262 10270 10280 10290 10302 10316 10331 10348 10365 10382 10402 10427 10446 10469 10484 10496 10511 10526 10538 10548 10558 10567 10578 10591 10601 10609 10611 10614 10618 10624 10631 10637 10646
10236 10233 10232 10232 10233 10234 10237 10241 10246 10251 10257 10264 10272 10282 10294 10305 10317 10332 10348 10366 10385 10408 10425 10445 10461 10471 10484 10502 10516 10528 10540 10550 10561 10572 10582 10591 10600 10608 10606 10611 10616 10621 10627 10636
10236 10235 10234 10235 10235 10236 10240 10244 10248 10254 10261 10268 10277 10287 10298 10309 10322 10337 10354 10371 10389 10407 10426 10442 10453 10465 10481 10497 10511 10523 10533 10543 10556 10565 10572 10583 10594 10598 10603 10606 10606 10615 10620 10627
10240 10238 10238 10239 10240 10242 10245 10249 10252 10258 10265 10274 10282 10292 10302 10316 10329 10342 10358 10376 10391 10408 10423 10434 10448 10463 10482 10494 10506 10517 10528 10539 10549 10563 10575 10579 10586 10592 10600 10602 10603 10607 10614 10625
10244 10243 10244 10245 10246 10249 10253 10256 10260 10266 10274 10280 10290 10301 10310 10321 10335 10351 10367 10379 10393 10411 10425 10439 10453 10460 10478 10491 10501 10509 10523 10534 10543 10556 10565 10565 10574 10580 10583 10587 10592 10598 10604 10612
10251 10250 10252 10253 10254 10257 10260 10263 10268 10273 10279 10289 10297 10306 10317 10330 10342 10360 10371 10384 10396 10412 10425 10434 10447 10462 10477 10487 10494 10507 10516 10524 10533 10541 10546 10552 10567 10564 10573 10577 10580 10590 10596 10601
10260 10259 10260 10261 10263 10265 10269 10274 10279 10283 10289 10298 10306 10315 10325 10342 10353 10367 10381 10392 10401 10409 10421 10434 10450 10461 10472 10484 10493 10494 10501 10512 10521 10528 10535 10542 10553 10553 10561 10566 10574 10580 10586 10590
10268 10268 10268 10270 10272 10275 10279 10283 10287 10293 10299 10308 10317 10327 10339 10351 10360 10373 10382 10393 10400 10412 10427 10434 10449 10453 10466 10477 10483 10490 10497 10506 10515 10523 10529 10536 10542 10547 10552 10555 10560 10566 10571 10576
10278 10277 10278 10280 10282 10285 10289 10293 10296 10303 10310 10317 10325 10336 10345 10354 10363 10373 10381 10392 10403 10414 10424 10435 10446 10452 10460 10467 10479 10486 10491 10497 10504 10511 10520 10527 10533 10538 10541 10544 10547 10552 10557 10562
10286 10288 10289 10289 10292 10294 10297 10302 10308 10313 10317 10322 10332 10341 10351 10361 10370 10379 10390 10398 10407 10418 10424 10432 10441 10448 10454 10467 10473 10477 10484 10491 10498 10504 10511 10517 10523 10527 10528 10532 10533 10538 10542 10546
10294 10296 10297 10299 10301 10303 10306 10311 10316 10322 10328 10335 10342 10348 10355 10364 10374 10381 10390 10400 10408 10419 10428 10433 10438 10445 10454 10462 10467 10472 10479 10485 10491 10496 10501 10505 10508 10513 10515 10519 10522 10526 10527 10530
10302 10305 10305 10307 10309 10312 10316 10319 10323 10329 10334 10341 10348 10356 10363 10370 10377 10386 10394 10402 10412 10420 10426 10432 10437 10442 10449 10455 10461 10468 10473 10478 10481 10486 10489 10491 10494 10499 10501 10503 10507 10508 10509 10512